This demonstration page uses our WeatherBlox Daily Observations layout. Learn more.

Left ArrowRight Arrow

Hourly Observations for September 25, 2018

Temp ( °F °C ) Dew Point ( °F °C ) Humidity (%) Winds ( mph kmh ) Pressure ( in mb ) Visibility ( mi km ) Precip ( " mm )
12:53 am 00:53 Cloudy 59 15 54 12.2 83 83 NNE 14 22 29.91 1013 10 16 0.00 0.00
1:53 am 01:53 Cloudy 58 14.4 53 11.7 84 84 NNE 13 20 29.90 1013 10 16 0.00 0.00
2:53 am 02:53 Clear 56 13.3 53 11.7 90 90 ENE 13 20 29.86 1011 10 16 0.00 0.00
3:02 am 03:02 Mostly Clear 55 13 54 12 94 94 ENE 13 20 29.85 1011 10 16 0.00 0.00
3:53 am 03:53 Mostly Cloudy 56 13.3 53 11.7 90 90 ENE 10 17 29.85 1011 10 16 0.00 0.00
4:53 am 04:53 Cloudy 55 12.8 54 12.2 96 96 E 8 13 29.85 1011 10 16 0.00 0.00
5:53 am 05:53 Cloudy 56 13.3 54 12.2 93 93 N 14 22 29.90 1013 10 16 0.00 0.00
6:53 am 06:53 Cloudy with Mist and Fog 56 13.3 54 12.2 93 93 N 13 20 29.92 1013 5 8 0.00 0.00
7:15 am 07:15 Cloudy with Light Rain 54 12.2 54 12.2 100 100 N 18 30 29.94 1014 3 5 0.00 0.03
7:31 am 07:31 Cloudy with Light Rain 54 12.2 53 11.7 97 97 N 17 28 29.97 1015 3 4 0.00 0.03
7:53 am 07:53 Cloudy with Rain 54 12.2 54 12.2 100 100 NNW 16 26 30.00 1016 2 3 0.02 0.51
8:01 am 08:01 Cloudy with Light Rain 54 12.2 54 12.2 100 100 NNW 13 20 30.03 1017 3 5 0.01 0.25
8:34 am 08:34 Cloudy 55 12.8 53 11.7 93 93 N 18 30 30.00 1016 10 16 0.01 0.25
8:53 am 08:53 Cloudy 55 12.8 53 11.7 93 93 N 17 28 30.00 1016 10 16 0.01 0.25
9:53 am 09:53 Cloudy 56 13.3 53 11.7 90 90 NNW 16 26 30.04 1017 10 16 0.01 0.25
10:02 am 10:02 Cloudy 55 12.8 53 11.7 93 93 NNW 16 26 30.06 1018 10 16 0.00 0.00
10:53 am 10:53 Mostly Cloudy 58 14.4 53 11.7 84 84 NNW 15 24 30.06 1018 10 16 0.00 0.00
11:53 am 11:53 Mostly Cloudy 59 15 50 10 72 72 NNW 21 33 30.07 1018 10 16 0.00 0.00
12:37 pm 12:37 Cloudy 59 15 48 9 68 68 NNW 23 37 30.06 1018 10 16 0.00 0.00
12:53 pm 12:53 Mostly Cloudy 61 16.1 49 9.4 65 65 N 22 35 30.09 1019 10 16 0.00 0.00
1:53 pm 13:53 Mostly Cloudy 62 16.7 48 8.9 60 60 N 25 41 30.09 1019 10 16 0.00 0.00
2:53 pm 14:53 Mostly Cloudy 65 18.3 46 7.8 51 51 N 25 41 30.08 1019 10 16 0.00 0.00
3:53 pm 15:53 Sunny 65 18.3 44 6.7 47 47 N 18 30 30.09 1019 10 16 0.00 0.00
4:53 pm 16:53 Partly Cloudy 65 18.3 44 6.7 47 47 N 16 26 30.10 1019 10 16 0.00 0.00
5:53 pm 17:53 Partly Cloudy 63 17.2 43 6.1 48 48 N 13 20 30.11 1020 10 16 0.00 0.00
6:53 pm 18:53 Sunny 62 16.7 42 5.6 48 48 NNW 12 19 30.14 1021 10 16 0.00 0.00
7:53 pm 19:53 Clear 55 12.8 42 5.6 62 62 NNW 6 9 30.18 1022 10 16 0.00 0.00
8:53 pm 20:53 Clear 52 11.1 41 5 66 66 NNW 3 6 30.21 1023 10 16 0.00 0.00
9:53 pm 21:53 Clear 50 10 42 5.6 74 74 WSW 5 7 30.22 1024 10 16 0.00 0.00
10:53 pm 22:53 Hazy 47 8.3 40 4.4 77 77 W 5 7 30.24 1024 4 6 0.00 0.00
11:53 pm 23:53 Clear 47 8.3 40 4.4 77 77 W 3 6 30.25 1025 8 13 0.00 0.00

Powered by AerisWeather